{"data":{"norad_id":58019,"epoch":"2026-09-21T22:03:16.448832Z","epoch_age_seconds":111150,"freshness":"FRESH","line1":"1 58019U 23155D   26264.91894038  .00040874  00000+0  50829-3 0  9990","line2":"2 58019  97.5501 359.8016 0002110  95.6902 264.4595 15.59864680163972","mean_motion":15.5986468,"eccentricity":0.000211,"inclination_deg":97.5501,"raan_deg":359.8016,"arg_perigee_deg":95.6902,"mean_anomaly_deg":264.4595,"bstar":0.00050829,"rev_number":16397,"period_min":92.315700102909,"perigee_km":386.62070344583,"apogee_km":389.47603367137,"semimajor_km":6766.1853685586,"source":"CELESTRAK","updated_at":"2026-09-22T09:00:26.440447Z"}}